Location: ????????
(37.8634°N, 24.0181°E)
Time: 02:38:33
(UTC+00:00)

Daily predictions for brighter satellites

Satellite Brightness Start Highest point End
(mag) Time Altitude Azimuth Time Altitude Azimuth Time Altitude Azimuth
ADEOS II 2.7 00:01:44 10° NNE 00:06:47 46° E 00:07:44 41° SE
IDEFIX/ARIANE 42P 3.6 00:02:53 10° NNE 00:07:47 38° E 00:09:04 33° SE
Cosmos 2084 Rocket 4.5 00:12:47 35° NNW 00:12:47 35° NNW 00:15:37 10° NNE
Thor Agena Rocket 4.3 00:10:25 10° N 00:15:16 38° WNW 00:15:34 38° WNW
SL-16 R/B 2.0 00:16:08 68° SW 00:16:53 84° WNW 00:22:35 10° NNE
NPP 3.5 00:12:55 10° NNE 00:18:20 87° WNW 00:19:05 67° SSW
Cosmos 2369 Rocket 4.5 00:14:04 10° N 00:18:23 22° NE 00:22:42 10° ESE
COSMOS 2455 3.0 00:21:40 50° SSE 00:23:03 65° ESE 00:29:02 10° NNE
CZ-4 R/B 4.0 00:20:56 10° N 00:25:29 56° WNW 00:25:30 56° WNW
ATLAS 5 CENTAUR R/B 4.2 00:21:05 10° NW 00:24:40 21° WNW 00:24:40 21° WNW
Cosmos 1455 Rocket 3.9 00:22:50 10° NNW 00:26:10 38° WNW 00:26:10 38° WNW
CZ-4C R/B 3.9 00:21:37 10° NW 00:27:52 30° WSW 00:27:52 30° WSW
Meteor 1-28 Rocket 4.1 00:28:44 40° ESE 00:29:19 44° ENE 00:32:52 10° N
Cosmos 1536 Rocket 3.5 00:30:54 69° SE 00:31:16 75° E 00:35:40 10° N
EO 1 Del DPAF 3.7 00:28:07 10° NNE 00:31:12 51° ENE 00:31:12 51° ENE
Nadezhda 1 Rocket 4.1 00:30:28 39° S 00:32:59 75° E 00:39:18 10° N
Meteor 1-24 Rocket 4.0 00:34:53 45° WSW 00:35:41 49° WNW 00:41:02 10° N
UNK 3.6 00:40:50 65° SSW 00:41:25 75° WSW 00:46:01 10° NNW
MSX 4.1 00:37:02 10° NNE 00:42:46 64° ESE 00:45:21 33° S
MOS 1 Rocket 2.9 00:44:05 68° SSW 00:44:34 80° WSW 00:48:52 10° NNW
YAOGAN 11 4.0 00:46:10 63° SSW 00:46:40 71° WSW 00:51:09 10° NNW
Cosmos 1455 2.6 00:49:33 10° NNW 00:52:37 48° WNW 00:52:37 48° WNW
Cosmos 1269 Rocket 4.3 00:49:30 10° NNW 00:54:32 45° WSW 00:55:07 43° WSW
Cosmos 1271 Rocket 2.7 00:52:53 10° N 00:56:43 77° E 00:57:43 47° SSE
Lacrosse 5 3.2 00:58:31 21° W 01:00:51 31° NW 01:05:22 10° NNE
CZ-2D R/B 3.2 00:56:33 10° N 01:01:06 29° WNW 01:02:28 26° W
ALOS 4.5 00:57:51 10° NE 01:01:20 20° E 01:04:47 10° SE
Cosmos 2154 Rocket 4.0 01:01:18 10° NNW 01:07:34 67° W 01:11:15 26° SSW
Helios 1B rocket 3.5 01:06:37 10° NNE 01:10:27 39° E 01:12:57 19° SSE
Cosmos 1943 3.3 01:08:53 28° S 01:11:58 71° ESE 01:17:39 10° NNE
SL-16 R/B 3.1 01:14:42 29° SW 01:16:36 36° W 01:22:17 10° NNW
Helios 1A 3.2 01:16:52 39° SW 01:17:54 49° W 01:22:01 10° NNW
BREEZE-M DEB (TANK) 3.5 01:17:31 31° SSE 01:18:23 39° SE 01:23:58 10° ENE
Cosmos 1328 4.0 01:16:43 28° S 01:18:39 69° E 01:22:36 10° NNE
Lacrosse 5 rocket 3.1 01:21:54 16° WNW 01:23:44 22° NW 01:26:54 10° NNE
Cosmos 1140 Rocket 4.5 01:20:10 10° N 01:25:16 49° ENE 01:30:18 10° SE
NOSS 3-3 (A) 3.8 01:26:08 27° SW 01:29:17 75° NW 01:35:32 10° NNE
NOSS 3-3 (C) 3.8 01:26:14 27° SW 01:29:22 76° NW 01:35:38 10° NNE
Resurs 1-4 Rocket 4.0 01:26:58 10° NNW 01:29:58 15° WNW 01:31:56 13° W
Lacrosse 4 Rocket 3.7 01:27:03 10° SSE 01:30:07 19° ESE 01:33:09 10° ENE
Cosmos 1892 Rocket 3.7 01:27:31 19° S 01:30:41 75° E 01:35:09 10° N
SeaSat 1 4.1 01:27:56 10° NE 01:32:09 28° ESE 01:36:20 10° SSE
Cosmos 1703 4.4 01:35:52 24° W 01:36:47 27° WNW 01:40:09 10° NNW
Cosmos 1943 Rocket 3.0 01:32:23 10° NW 01:37:12 29° WSW 01:39:28 22° SW
Cosmos 2297 4.2 01:32:00 10° NW 01:37:17 39° WSW 01:41:33 15° SSW
Cosmos 2263 4.5 01:31:55 10° NNW 01:37:37 72° ENE 01:43:19 10° SSE
FENGYUN 3A 4.0 01:33:03 10° NNE 01:38:25 64° E 01:43:45 10° S
Cosmos 1726 Rocket 3.6 01:34:04 10° N 01:38:30 83° E 01:42:51 10° S
MOS 1-B Rocket 3.8 01:39:27 10° SSE 01:45:06 88° ENE 01:50:49 10° NNW
SL-24 DEB 4.3 01:41:06 10° S 01:45:51 84° E 01:50:34 10° N
Cosmos 1624 Rocket 4.2 01:41:18 14° S 01:45:56 72° ESE 01:51:14 10° NNE
ADEOS II 3.6 01:42:15 10° NNW 01:46:05 21° WNW 01:48:40 15° W
IDEFIX/ARIANE 42P 3.9 01:42:54 10° NNW 01:47:07 25° WNW 01:49:52 16° WSW
Cosmos 1825 4.2 01:45:01 10° SSE 01:48:09 27° E 01:51:18 10° NNE
ARIANE 5 R/B 3.1 01:44:54 10° NNE 01:49:51 53° E 01:54:43 10° S
DNEPR-1 R/B 3.8 01:48:16 22° SW 01:50:47 53° NW 01:55:12 10° NNE
GPS 2-04 Rocket1 3.0 01:50:27 24° SW 01:51:59 38° SSE 01:55:19 10° E
CBERS-1 4.2 01:47:41 10° N 01:52:42 58° WNW 01:56:47 15° SSW
Cosmos 2218 Rocket 4.0 01:46:26 10° N 01:52:42 88° E 01:59:01 10° S
Cosmos 1241 Rocket 4.5 01:49:07 15° SSW 01:54:22 81° ESE 02:00:36 10° NNE
Cosmos 2056 Rocket 3.5 01:52:53 13° SSW 01:57:31 89° W 02:02:47 10° NNE
FALCON 9 R/B 4.4 01:42:06 10° WNW 01:59:10 30° SW 02:05:22 10° S
RUBIN 8/PSLV 4.5 01:55:35 10° N 01:59:52 85° WNW 02:04:10 10° SSW
SL-16 R/B 4.3 01:59:31 10° WNW 02:01:52 12° NW 02:04:13 10° NNW
CZ-3 R/B 4.2 01:12:34 10° WSW 02:02:00 64° S 02:13:24 10° ESE
Cosmos 2369 Rocket 2.4 01:57:17 10° NNW 02:02:39 49° WSW 02:08:00 10° S
Cosmos 2181 Rocket 4.1 01:57:52 11° SSW 02:03:53 59° W 02:10:01 10° N
Cosmos 1892 2.6 02:00:28 10° S 02:04:15 86° W 02:08:02 10° N
Cosmos 2228 4.3 02:01:50 10° NW 02:05:13 22° W 02:07:33 15° SW
OAO 2 Rocket 3.6 02:02:22 15° WSW 02:06:13 52° SSE 02:11:00 10° E
Cosmos 2251 Rocket 4.1 02:03:11 10° NW 02:08:00 37° WSW 02:12:49 10° SSW
Cosmos 1959 Rocket 4.5 02:02:37 10° N 02:08:50 71° W 02:14:57 10° S
COSMOS 2455 4.4 02:04:55 10° W 02:09:27 22° NW 02:14:02 10° N
Cosmos 2098 4.2 02:06:56 10° N 02:09:57 79° E 02:12:59 10° S
Cosmos 1656 Rocket 3.7 02:06:49 10° NNW 02:12:02 51° WSW 02:17:16 10° S
IRS-P3 4.1 02:07:49 10° NNE 02:13:11 82° WNW 02:18:30 10° SSW
Cosmos 2058 Rocket 3.0 02:08:58 10° NNW 02:13:19 70° W 02:17:38 10° S
Cosmos 1190 Rocket 4.1 02:10:23 10° NNW 02:15:42 90° ENE 02:21:01 10° SSE
Cosmos 1626 Rocket 3.8 02:11:32 10° S 02:15:55 76° E 02:20:18 10° N
In-Cosmos 22 Rocket 4.4 02:10:17 10° S 02:16:04 88° E 02:21:56 10° N
Cosmos 1408 3.0 02:14:43 10° SSW 02:18:10 44° W 02:21:40 10° N
[s.n.52708] 3.5 02:16:55 13° WSW 02:19:13 38° NW 02:21:53 10° NNE
[s.n.52707] 3.5 02:17:02 13° WSW 02:19:20 38° NW 02:22:00 10° NNE
[s.n.52703] 3.5 02:17:08 13° WSW 02:19:26 38° NW 02:22:07 10° NNE
[s.n.52705] 3.6 02:17:14 13° WSW 02:19:32 38° NW 02:22:13 10° NNE
[s.n.52706] 3.6 02:17:21 13° WSW 02:19:39 37° NW 02:22:20 10° NNE
[s.n.52701] 3.6 02:17:27 12° WSW 02:19:46 37° NW 02:22:26 10° NNE
[s.n.52704] 3.6 02:17:33 12° WSW 02:19:52 37° NW 02:22:33 10° NNE
[s.n.52699] 3.6 02:17:40 12° WSW 02:19:58 37° NW 02:22:39 10° NNE
[s.n.52702] 3.6 02:17:46 12° WSW 02:20:06 37° NW 02:22:46 10° NNE
[s.n.52697] 3.6 02:17:53 12° WSW 02:20:12 37° NW 02:22:53 10° NNE
[s.n.52700] 3.6 02:17:59 12° WSW 02:20:19 37° NW 02:22:59 10° NNE
[s.n.52695] 3.6 02:18:05 12° WSW 02:20:26 37° NW 02:23:06 10° NNE
[s.n.52698] 3.6 02:18:12 12° WSW 02:20:32 37° NW 02:23:12 10° NNE
[s.n.52693] 3.6 02:18:18 12° WSW 02:20:39 37° NW 02:23:19 10° NNE
[s.n.52696] 3.6 02:18:24 12° WSW 02:20:46 36° NW 02:23:25 10° NNE
[s.n.52691] 3.6 02:18:31 12° WSW 02:20:52 36° NW 02:23:32 10° NNE
[s.n.52689] 3.6 02:18:38 12° WSW 02:20:59 36° NW 02:23:39 10° NNE
[s.n.52694] 3.6 02:18:44 12° WSW 02:21:05 36° NW 02:23:45 10° NNE
[s.n.52692] 3.6 02:18:50 12° WSW 02:21:13 36° NW 02:23:52 10° NNE
[s.n.52687] 3.6 02:18:57 12° WSW 02:21:19 36° NW 02:23:59 10° NNE
[s.n.52685] 3.6 02:19:03 12° WSW 02:21:26 36° NW 02:24:05 10° NNE
[s.n.52690] 3.6 02:19:09 12° WSW 02:21:33 36° NW 02:24:12 10° NNE
[s.n.52688] 3.6 02:19:16 12° WSW 02:21:40 36° NW 02:24:19 10° NNE
[s.n.52683] 3.7 02:19:22 12° WSW 02:21:46 36° NW 02:24:26 10° NNE
[s.n.52686] 3.7 02:19:29 12° WSW 02:21:53 35° NW 02:24:32 10° NNE
[s.n.52681] 3.7 02:19:36 12° WSW 02:22:00 35° NW 02:24:40 10° NNE
[s.n.52679] 3.7 02:19:42 12° WSW 02:22:07 35° NW 02:24:46 10° NNE
[s.n.52684] 3.7 02:19:48 12° WSW 02:22:13 35° NW 02:24:53 10° NNE
[s.n.52682] 3.7 02:19:55 11° WSW 02:22:20 35° NW 02:24:59 10° NNE
[s.n.52677] 3.7 02:20:01 11° WSW 02:22:27 35° NW 02:25:06 10° NNE
[s.n.52680] 3.7 02:20:08 11° WSW 02:22:35 35° NW 02:25:14 10° NNE
[s.n.52675] 3.7 02:20:14 11° WSW 02:22:40 35° NW 02:25:20 10° NNE
[s.n.52678] 3.7 02:20:21 11° WSW 02:22:47 35° NW 02:25:27 10° NNE
[s.n.52673] 3.7 02:20:29 11° WSW 02:22:55 35° NW 02:25:35 10° NNE
[s.n.52676] 3.7 02:20:35 11° WSW 02:23:02 35° NW 02:25:41 10° NNE
[s.n.52671] 3.7 02:20:42 11° WSW 02:23:09 34° NW 02:25:48 10° NNE
[s.n.52669] 3.7 02:20:48 11° WSW 02:23:16 34° NW 02:25:54 10° NNE
[s.n.52674] 3.7 02:20:55 11° WSW 02:23:23 34° NW 02:26:02 10° NNE
[s.n.52672] 3.7 02:21:01 11° WSW 02:23:29 34° NW 02:26:08 10° NNE
[s.n.52667] 3.7 02:21:08 11° WSW 02:23:36 34° NW 02:26:15 10° NNE
[s.n.52665] 3.7 02:21:15 11° WSW 02:23:44 34° NW 02:26:22 10° NNE
[s.n.52670] 3.7 02:21:21 11° WSW 02:23:50 34° NW 02:26:29 10° NNE
[s.n.52668] 3.7 02:21:28 11° WSW 02:23:57 34° NW 02:26:36 10° NNE
[s.n.52666] 3.7 02:21:35 11° WSW 02:24:05 34° NW 02:26:43 10° NNE
[s.n.52663] 3.8 02:21:41 11° WSW 02:24:11 34° NW 02:26:50 10° NNE
[s.n.52662] 3.8 02:21:48 11° WSW 02:24:19 34° NW 02:26:57 10° NNE
[s.n.52664] 3.8 02:21:55 11° WSW 02:24:26 33° NW 02:27:04 10° NNE
[s.n.52661] 3.8 02:22:02 11° WSW 02:24:32 33° NW 02:27:10 10° NNE
[s.n.52660] 3.8 02:22:08 11° WSW 02:24:39 33° NW 02:27:18 10° NNE
[s.n.52656] 3.8 02:22:15 11° WSW 02:24:46 33° NW 02:27:24 10° NNE
[s.n.52658] 3.8 02:22:22 11° WSW 02:24:54 33° NW 02:27:33 10° NNE
[s.n.52659] 3.8 02:22:28 11° WSW 02:25:01 33° NW 02:27:39 10° NNE
[s.n.52657] 3.8 02:22:37 11° WSW 02:25:08 33° NW 02:27:46 10° NNE
PAYLOAD A 4.2 02:25:05 10° N 02:29:38 48° WNW 02:34:17 10° SW
ATLAS 2A CENTAUR R/B 3.9 02:17:43 10° WSW 02:31:16 39° S 02:36:52 10° ESE
Cosmos 676 Rocket 4.3 02:28:49 10° NNW 02:34:11 78° ENE 02:39:30 10° SSE
ALOS 3.0 02:34:31 10° N 02:38:45 35° WNW 02:42:59 10° SW
CZ-2C R/B 3.2 02:36:14 10° N 02:40:55 38° WNW 02:45:29 10° SW
